Simultaneous Nadir Overpasses (SNOs) Predictions

Prediction of SNOs between FY3D and TERRA Satellite Orbit:

Table of predicted SNOs for the next 14.0 days since TLE Epoch: 6/29/2024
Index Date (FY3D) Time (FY3D) Lat,Lon (FY3D) SZA (FY3D ) Date (TERRA) Time (TERRA) Lat,Lon (TERRA) SZA (TERRA ) Distance(km) Time Diff (sec)
1 07/01/2024 10:05:24 75.81, 28.77 52.67 07/01/2024 10:06:36 75.81, 28.68 52.68 2.53 72
2 07/01/2024 10:56:08 -75.76,-163.77 127.37 07/01/2024 10:55:59 -75.78,-163.75 127.35 2.31 9
3 07/03/2024 22:09:01 -75.79, 27.98 127.15 07/03/2024 22:09:10 -75.80, 27.98 127.13 1.87 9
4 07/03/2024 22:59:44 75.66,-164.29 52.73 07/03/2024 22:58:31 75.74,-164.55 52.81 11.01 73
5 07/06/2024 09:21:54 -75.82,-140.30 126.88 07/06/2024 09:22:20 -75.84,-140.26 126.86 2.21 26
6 07/06/2024 10:12:39 75.79, 27.13 53.10 07/06/2024 10:11:41 75.77, 27.22 53.08 2.98 58
7 07/08/2024 20:34:47 -75.86, 51.39 126.55 07/08/2024 20:35:30 -75.84, 51.41 126.58 3.16 43
8 07/08/2024 21:25:31 75.78,-141.03 53.37 07/08/2024 21:24:51 75.77,-141.12 53.36 3.01 40
9 07/11/2024 07:47:39 -75.87,-116.80 126.23 07/11/2024 07:48:38 -75.90,-116.74 126.21 3.17 59
10 07/11/2024 08:38:24 75.84, 50.63 53.75 07/11/2024 08:37:59 75.83, 50.74 53.74 2.86 25



Historial Predications of SNOs between FY3D and TERRA
